User: anonymous   Login
Location: L�tisburg
(47.3947°N, 9.0820°E)
Time: 15:39:14
(UTC+00:00)
Language:

Cosmos 1666 - Orbit

View from above orbital plane
View from above orbital plane
View from above satellite
View from above satellite

Ground track
Ground track

The orbit data is extracted from the following two-line orbital elements,

1 15889U 85058A   21135.73562175  .00001033  00000-0  46969-4 0  9990
2 15889  82.4893  16.4868 0017900 127.1726 233.1147 15.19461798958669
Epoch (UTC): 15 May 2021 17:39:17
Eccentricity: 0.0017900
inclination: 82.4893°
perigee height: 495 km
apogee height: 520 km
right ascension of ascending node: 16.4868°
argument of perigee: 127.1726°
revolutions per day: 15.19461798
mean anomaly at epoch: 233.1147°
orbit number at epoch: 95866

The dashed part of the orbit path shows where the satellite is in the earth's shadow,  

DLR